Location: Bakhuizen
(52.8696°N, 5.4575°E)
Time: 08:52:14
(UTC+00:00)

Cosmos 1125 Rocket - Pass Details

Date: 11 May 2021
Orbit: 758 x 779 km, 74.0° (Epoch: 15 June)

Event Time Altitude Azimuth Distance (km) Brightness Sun altitude
Exits shadow 23:26:47 33° 151° (SSE) 1,260 4.1 -19.0°
Maximum altitude 23:28:29 45° 106° (ESE) 1,043 4.0 -19.0°
Drops below altitude 10° 23:33:26 10° 36° (NE) 2,304 6.7 -19.0°
Sets 23:35:53 0° 30° (NNE) 3,232 7.8 -19.0°
